This is the latest recevied weather packets stored in our database for station/object HB9TJM-8. If no packets are shown the sender has not sent any weather packets the latest 10 day(s).
| Time | Temp. | Humidity | Pressure | Rain* | Wind** | Luminosity | Snow |
|---|---|---|---|---|---|---|---|
| 1777483748 | 13.89° C | 63% | 1017.4 hPa | 0 mm | - | 55 W/m² | - |
| 1777483748 | 13.89° C | 63% | 1017.4 hPa | 0 mm | - | 55 W/m² | - |
| 1777483441 | 13.89° C | 63% | 1017.6 hPa | 0 mm | - | 62 W/m² | - |
| 1777482826 | 13.89° C | 63% | 1017.7 hPa | 0 mm | - | 75 W/m² | - |
| 1777482518 | 13.89° C | 62% | 1017.6 hPa | 0 mm | - | 83 W/m² | - |
| 1777482210 | 13.89° C | 63% | 1017.6 hPa | 0 mm | - | 94 W/m² | - |
| 1777481903 | 13.89° C | 62% | 1017.5 hPa | 0 mm | - | 98 W/m² | - |
| 1777481596 | 13.89° C | 61% | 1017.6 hPa | 0 mm | - | 104 W/m² | - |
| 1777481288 | 13.89° C | 61% | 1017.5 hPa | 0 mm | - | 110 W/m² | - |
| 1777480981 | 13.89° C | 61% | 1017.6 hPa | 0 mm | - | 116 W/m² | - |
| 1777480673 | 13.89° C | 60% | 1017.8 hPa | 0 mm | - | 122 W/m² | - |
| 1777480366 | 13.89° C | 61% | 1017.9 hPa | 0 mm | - | 127 W/m² | - |
| 1777480058 | 13.89° C | 61% | 1017.8 hPa | 0 mm | - | 130 W/m² | - |
| 1777479751 | 13.89° C | 61% | 1017.2 hPa | 0 mm | - | 138 W/m² | - |
| 1777479443 | 13.89° C | 61% | 1017.7 hPa | 0 mm | - | 143 W/m² | - |
| 1777478828 | 14.44° C | 61% | 1017.8 hPa | 0 mm | - | 176 W/m² | - |
| 1777478212 | 13.89° C | 62% | 1017.2 hPa | 0 mm | - | 149 W/m² | - |
| 1777477905 | 13.89° C | 62% | 1017.4 hPa | 0 mm | - | 138 W/m² | - |
| 1777477905 | 13.89° C | 62% | 1017.4 hPa | 0 mm | - | 138 W/m² | - |
| 1777477597 | 14.44° C | 61% | 1017.6 hPa | 0 mm | - | 155 W/m² | - |
| 1777477597 | 14.44° C | 61% | 1017.6 hPa | 0 mm | - | 155 W/m² | - |
| 1777477290 | 14.44° C | 62% | 1017.4 hPa | 0 mm | - | 187 W/m² | - |
| 1777477290 | 14.44° C | 62% | 1017.4 hPa | 0 mm | - | 187 W/m² | - |
| 1777476674 | 14.44° C | 63% | 1017.1 hPa | 0 mm | - | 236 W/m² | - |
| 1777476674 | 14.44° C | 63% | 1017.1 hPa | 0 mm | - | 236 W/m² | - |
* Rain latest hour (hover to see other rain measurements)
** Current wind speed in m/s (hover to see current wind gust speed)